Torna al catalogo

FENGYUN 1C DEB

AttivoSSO
NORAD 31449·DEBRIS·🇨🇳 China

Lanciato May 10, 1999 da Taiyuan Satellite Launch Center

Loading…

Prossimi Passaggi (prossime 24 ore)

TLE

AggiornatoSource: Space-Track

Epoca: Sep 13, 2026, 21:53 UTC

1 31449U 99025BUM 26256.91229634  .00000351  00000-0  12663-3 0  9993
2 31449  98.5185 316.8890 0144924 172.9638 187.3627 14.34017562 15568

Traccia FENGYUN 1C DEB in tempo reale con AllMySat

Download on the App Store